Weather History for K20U - March, 2013

Change the Weather History Date:

Friday, March 15, 2013

  Actual Average (KBHK) Record (KBHK)
Temperature  
Mean Temperature 30 °F -  
Max Temperature 41 °F 35 °F - (-1)
Min Temperature 17 °F 22 °F - (-1)
Degree Days  
Heating Degree Days 35    
Moisture  
Dew Point 27 °F    
Average Humidity 94    
Maximum Humidity 100    
Minimum Humidity 76    
Precipitation  
Precipitation 0.00 in - - ()
Sea Level Pressure  
Sea Level Pressure 29.92 in    
Wind  
Wind Speed 12 mph (ENE)    
Max Wind Speed 24 mph    
Max Gust Speed 31 mph    
Visibility 5 miles    
Events Fog , Rain    
Averages and records for this station are not official NWS values.
T = Trace of Precipitation, MM = Missing Value Source: NWS Daily Summary

Daily Weather History Graph

Daily Weather History Graph

Search for Another Location

Airport or City:

Trip Planner

Search our weather history database for the weather conditions in past years. The results will help you decide how hot, cold, wet, or windy it might be!

Date:

Astronomy

Mar. 15, 2013 Rise Set
Actual Time 7:08 AM MDT 7:02 PM MDT
Civil Twilight 6:37 AM MDT 7:32 PM MDT
Nautical Twilight 6:02 AM MDT 8:07 PM MDT
Astronomical Twilight 5:26 AM MDT 8:44 PM MDT
Moon 8:43 AM MDT (3/15) 11:37 PM MDT (3/15)
Length of Visible Light 12h 54m
Length of Day
11h 53m
Waxing Crescent, 16% of the Moon is Illuminated
Mar 15
Waxing Crescent
Mar 19
First Quarter
Mar 27
Full
Apr 2
Last Quarter
Apr 10
New

Hourly Weather History & Observations

Time (MDT) Temp. Windchill Dew Point Humidity Pressure Visibility Wind Dir Wind Speed Gust Speed Precip Events Conditions
12:15 AM 32.0 °F 28.7 °F 32.0 °F 100% 29.99 in 4.0 mi East 3.5 mph - N/A   Overcast
12:35 AM 32.0 °F 28.7 °F 32.0 °F 100% 29.98 in 4.0 mi SE 3.5 mph - N/A   Overcast
1:15 AM 32.0 °F 23.0 °F 32.0 °F 100% 29.93 in 2.5 mi SE 11.5 mph - N/A   Overcast
1:35 AM 32.0 °F 22.1 °F 32.0 °F 100% 29.91 in 2.5 mi SSE 13.8 mph 19.6 mph N/A   Overcast
1:55 AM 32.0 °F 22.5 °F 32.0 °F 100% 29.90 in 3.0 mi SE 12.7 mph 20.7 mph N/A   Overcast
2:15 AM 30.2 °F 21.3 °F 30.2 °F 100% 29.90 in 3.0 mi SE 10.4 mph - N/A   Overcast
2:35 AM 30.2 °F 21.9 °F 30.2 °F 100% 29.91 in 3.0 mi ESE 9.2 mph - N/A Rain Light Freezing Rain
2:55 AM 30.2 °F 21.3 °F 30.2 °F 100% 29.89 in 3.0 mi SE 10.4 mph - N/A Rain Light Freezing Rain
3:15 AM 30.2 °F 20.8 °F 30.2 °F 100% 29.89 in 3.0 mi SE 11.5 mph - N/A   Overcast
3:35 AM 30.2 °F 19.3 °F 30.2 °F 100% 29.87 in 3.0 mi ESE 15.0 mph - N/A   Overcast
3:55 AM 30.2 °F 22.6 °F 30.2 °F 100% 29.88 in 3.0 mi East 8.1 mph - N/A   Overcast
4:15 AM 28.4 °F 18.5 °F 28.4 °F 100% 29.88 in 1.0 mi East 11.5 mph - N/A   Overcast
4:35 AM 28.4 °F 17.5 °F 28.4 °F 100% 29.87 in 0.2 mi ESE 13.8 mph - N/A Fog Light Freezing Fog
4:55 AM 28.4 °F 17.0 °F 28.4 °F 100% 29.88 in 0.2 mi East 15.0 mph - N/A Fog Light Freezing Fog
5:15 AM 26.6 °F 14.3 °F 26.6 °F 100% 29.88 in 0.2 mi East 16.1 mph 20.7 mph N/A Fog Light Freezing Fog
5:35 AM 26.6 °F 13.8 °F 26.6 °F 100% 29.88 in 0.5 mi East 17.3 mph 20.7 mph N/A Fog Light Freezing Fog
6:15 AM 26.6 °F 15.2 °F 26.6 °F 100% 29.86 in 0.5 mi ESE 13.8 mph - N/A Fog Light Freezing Fog
6:35 AM 26.6 °F 12.7 °F 26.6 °F 100% 29.84 in 0.5 mi ESE 20.7 mph - N/A Fog Light Freezing Fog
6:55 AM 26.6 °F 14.3 °F 26.6 °F 100% 29.84 in 0.5 mi ESE 16.1 mph - N/A Fog Light Freezing Fog
7:15 AM 26.6 °F 15.7 °F 26.6 °F 100% 29.84 in 0.8 mi ESE 12.7 mph 18.4 mph N/A   Overcast
7:35 AM 26.6 °F 13.8 °F 26.6 °F 100% 29.83 in 0.2 mi SE 17.3 mph 23.0 mph N/A Fog Light Freezing Fog
7:55 AM 24.8 °F 12.9 °F 24.8 °F 100% 29.85 in 0.5 mi SE 13.8 mph 21.9 mph N/A Rain Light Freezing Rain
8:15 AM 26.6 °F 17.5 °F 26.6 °F 100% 29.86 in 0.5 mi SE 9.2 mph - N/A Fog Light Freezing Fog
8:35 AM 26.6 °F 16.8 °F 26.6 °F 100% 29.86 in 0.5 mi SE 10.4 mph - N/A Fog Light Freezing Fog
9:55 AM 26.6 °F 15.7 °F 26.6 °F 100% 29.84 in 0.5 mi SSE 12.7 mph - N/A Fog Light Freezing Fog
10:15 AM 28.4 °F 19.1 °F 28.4 °F 100% 29.84 in 0.5 mi SSE 10.4 mph - N/A Fog Light Freezing Fog
10:35 AM 28.4 °F 19.7 °F 28.4 °F 100% 29.84 in 1.0 mi South 9.2 mph - N/A   Overcast
10:55 AM 28.4 °F 22.2 °F 28.4 °F 100% 29.85 in 1.2 mi South 5.8 mph - N/A   Overcast
11:15 AM 30.2 °F 25.4 °F 30.2 °F 100% 29.86 in 2.0 mi South 4.6 mph - N/A   Overcast
11:35 AM 30.2 °F 23.4 °F 30.2 °F 100% 29.85 in 2.5 mi ESE 6.9 mph - N/A   Overcast
11:55 AM 32.0 °F 26.4 °F 32.0 °F 100% 29.85 in 2.5 mi ESE 5.8 mph - N/A   Overcast
12:15 PM 32.0 °F 25.6 °F 32.0 °F 100% 29.84 in 3.0 mi SE 6.9 mph - N/A   Overcast
12:35 PM 32.0 °F 26.4 °F 32.0 °F 100% 29.84 in 4.0 mi SSE 5.8 mph - N/A Rain Light Rain
12:55 PM 35.6 °F 31.7 °F 35.6 °F 100% 29.83 in 5.0 mi South 4.6 mph - N/A Rain Light Rain
1:15 PM 37.4 °F 34.9 °F 35.6 °F 93% 29.84 in 6.0 mi SW 3.5 mph - N/A Rain Light Rain
1:35 PM 41.0 °F 34.3 °F 35.6 °F 81% 29.84 in 8.0 mi NW 11.5 mph 17.3 mph N/A   Overcast
1:55 PM 41.0 °F 33.1 °F 35.6 °F 81% 29.85 in 7.0 mi NW 15.0 mph 19.6 mph N/A   Overcast
2:15 PM 41.0 °F 32.8 °F 33.8 °F 76% 29.84 in 8.0 mi WNW 16.1 mph - N/A   Mostly Cloudy
2:35 PM 41.0 °F 32.5 °F 33.8 °F 76% 29.84 in 8.0 mi WNW 17.3 mph 21.9 mph N/A   Partly Cloudy
2:55 PM 41.0 °F 31.9 °F 33.8 °F 76% 29.85 in 9.0 mi NW 19.6 mph 26.5 mph N/A   Scattered Clouds
3:15 PM 41.0 °F 31.6 °F 33.8 °F 76% 29.86 in 10.0 mi NW 20.7 mph 26.5 mph N/A   Scattered Clouds
3:35 PM 37.4 °F 26.9 °F 32.0 °F 81% 29.88 in 8.0 mi NNW 20.7 mph 29.9 mph N/A   Mostly Cloudy
3:55 PM 33.8 °F 21.9 °F 32.0 °F 93% 29.90 in 7.0 mi NW 21.9 mph 29.9 mph N/A   Overcast
4:15 PM 32.0 °F 19.5 °F 30.2 °F 93% 29.93 in 7.0 mi NW 21.9 mph 29.9 mph N/A   Overcast
4:35 PM 30.2 °F 17.4 °F 28.4 °F 93% 29.95 in 4.0 mi NNW 20.7 mph 31.1 mph N/A   Overcast
4:55 PM 28.4 °F 16.2 °F 26.6 °F 93% 29.96 in 5.0 mi NNW 17.3 mph 24.2 mph N/A   Overcast
5:15 PM 28.4 °F 17.0 °F 26.6 °F 93% 29.96 in 5.0 mi NNW 15.0 mph 21.9 mph N/A   Overcast
5:35 PM 28.4 °F 15.4 °F 26.6 °F 93% 29.96 in 8.0 mi NNW 19.6 mph 28.8 mph N/A   Overcast
5:55 PM 28.4 °F 14.1 °F 24.8 °F 86% 29.97 in 9.0 mi NNW 24.2 mph 27.6 mph N/A   Overcast
6:15 PM 26.6 °F 13.1 °F 24.8 °F 93% 30.00 in 10.0 mi NNW 19.6 mph 24.2 mph N/A   Overcast
6:35 PM 26.6 °F 13.4 °F 24.8 °F 93% 29.99 in 9.0 mi NNW 18.4 mph 25.3 mph N/A   Overcast
6:55 PM 26.6 °F 13.8 °F 24.8 °F 93% 30.00 in 9.0 mi NNW 17.3 mph 24.2 mph N/A   Overcast
7:15 PM 26.6 °F 14.7 °F 24.8 °F 93% 30.00 in 9.0 mi NNW 15.0 mph 25.3 mph N/A   Overcast
7:35 PM 24.8 °F 11.5 °F 23.0 °F 93% 30.01 in 10.0 mi North 17.3 mph - N/A   Overcast
7:55 PM 24.8 °F 14.6 °F 23.0 °F 93% 30.03 in 10.0 mi North 10.4 mph 17.3 mph N/A   Overcast
8:15 PM 24.8 °F 14.6 °F 23.0 °F 93% 30.04 in 10.0 mi North 10.4 mph - N/A   Overcast
8:35 PM 24.8 °F 12.4 °F 21.2 °F 86% 30.04 in 10.0 mi North 15.0 mph - N/A   Overcast
8:55 PM 23.0 °F 11.1 °F 21.2 °F 93% 30.05 in 10.0 mi North 12.7 mph - N/A   Overcast
9:15 PM 23.0 °F 10.1 °F 19.4 °F 86% 30.05 in 10.0 mi North 15.0 mph - N/A   Overcast
9:35 PM 23.0 °F 10.6 °F 19.4 °F 86% 30.05 in 10.0 mi North 13.8 mph - N/A   Overcast
9:55 PM 23.0 °F 9.2 °F 19.4 °F 86% 30.05 in 10.0 mi North 17.3 mph 21.9 mph N/A   Overcast
10:15 PM 21.2 °F 8.9 °F 17.6 °F 86% 30.06 in 10.0 mi North 12.7 mph - N/A   Overcast
10:35 PM 19.4 °F 5.5 °F 17.6 °F 93% 30.07 in 10.0 mi North 15.0 mph - N/A   Overcast
10:55 PM 19.4 °F 6.6 °F 17.6 °F 93% 30.09 in 10.0 mi North 12.7 mph - N/A   Overcast
11:15 PM 19.4 °F 7.9 °F 17.6 °F 93% 30.09 in 10.0 mi North 10.4 mph - N/A   Overcast
11:35 PM 19.4 °F 6.6 °F 17.6 °F 93% 30.09 in 10.0 mi NNW 12.7 mph - N/A   Overcast
11:55 PM 17.6 °F 3.2 °F 15.8 °F 93% 30.09 in 10.0 mi NW 15.0 mph - N/A   Overcast